Weather History for KAIA - October, 2012

Change the Weather History Date:

Tuesday, October 9, 2012

  Actual Average Record
Temperature  
Mean Temperature 36 °F 48 °F  
Max Temperature 48 °F 65 °F 88 °F (2003)
Min Temperature 24 °F 32 °F 17 °F (2009)
Degree Days  
Heating Degree Days 29 17  
Month to date heating degree days 195 134  
Since 1 July heating degree days 358 379  
Cooling Degree Days 0 0  
Month to date cooling degree days 0 0  
Year to date cooling degree days 959 563  
Moisture  
Dew Point 32 °F    
Average Humidity 67    
Maximum Humidity 92    
Minimum Humidity 42    
Precipitation  
Precipitation 0.01 in 0.04 in 0.80 in (1923)
Month to date precipitation 0.42 0.41  
Year to date precipitation 6.23 14.21  
Sea Level Pressure  
Sea Level Pressure 30.08 in    
Wind  
Wind Speed 8 mph (North)    
Max Wind Speed 21 mph    
Max Gust Speed 29 mph    
Visibility 8 miles    
Events Snow    
T = Trace of Precipitation, MM = Missing Value Source: NWS Daily Summary

Daily Weather History Graph

Daily Weather History Graph

Search for Another Location

Airport or City:

Trip Planner

Search our weather history database for the weather conditions in past years. The results will help you decide how hot, cold, wet, or windy it might be!

Date:

Astronomy

Oct. 09, 2012 Rise Set
Actual Time 6:57 AM MDT 6:18 PM MDT
Civil Twilight 6:29 AM MDT 6:46 PM MDT
Nautical Twilight 5:57 AM MDT 7:18 PM MDT
Astronomical Twilight 5:24 AM MDT 7:51 PM MDT
Moon 12:30 AM MDT (10/9) 2:52 PM MDT (10/9)
Length of Visible Light 12h 16m
Length of Day
11h 20m
Last Quarter, 36% of the Moon is Illuminated
Oct 9
Last Quarter
Oct 15
New
Oct 21
First Quarter
Oct 29
Full
Nov 6
Last Quarter

Hourly Weather History & Observations

Time (MDT) Temp. Windchill Dew Point Humidity Pressure Visibility Wind Dir Wind Speed Gust Speed Precip Events Conditions
12:53 AM 44.1 °F 39.0 °F 37.9 °F 79% 29.87 in 10.0 mi North 9.2 mph - N/A   Clear
1:53 AM 42.8 °F 36.6 °F 37.4 °F 81% 29.91 in 10.0 mi NNE 11.5 mph - N/A   Scattered Clouds
2:53 AM 39.0 °F - 36.0 °F 89% 29.89 in 10.0 mi Calm Calm - N/A   Clear
3:19 AM 39.2 °F 34.2 °F 37.4 °F 93% 29.93 in 10.0 mi North 6.9 mph - N/A   Mostly Cloudy
3:53 AM 41.0 °F 37.1 °F 37.9 °F 89% 29.89 in 10.0 mi NNE 5.8 mph - N/A   Overcast
4:53 AM 41.0 °F 36.4 °F 37.0 °F 86% 29.94 in 10.0 mi North 6.9 mph - N/A   Overcast
5:53 AM 39.9 °F 31.8 °F 36.0 °F 86% 29.98 in 9.0 mi NNE 15.0 mph - N/A   Overcast
6:37 AM 37.4 °F 28.2 °F 35.6 °F 93% 30.03 in 4.0 mi NNE 16.1 mph 24.2 mph 0.00 in   Overcast
6:53 AM 37.0 °F 27.7 °F 36.0 °F 96% 30.03 in 4.0 mi NNE 16.1 mph - 0.00 in   Overcast
7:09 AM 37.4 °F 28.5 °F 35.6 °F 93% 30.04 in 3.0 mi NNE 15.0 mph - 0.00 in   Overcast
7:17 AM 35.6 °F 25.5 °F 35.6 °F 100% 30.03 in 2.5 mi NNE 17.3 mph 24.2 mph 0.00 in   Overcast
7:39 AM 35.6 °F 25.2 °F 33.8 °F 93% 30.05 in 7.0 mi NNE 18.4 mph - 0.00 in   Overcast
7:53 AM 35.1 °F 25.9 °F 33.1 °F 92% 30.07 in 10.0 mi NNE 13.8 mph 20.7 mph 0.00 in   Overcast
8:01 AM 35.6 °F 25.2 °F 33.8 °F 93% 30.07 in 10.0 mi NNE 18.4 mph 23.0 mph 0.00 in Snow Light Snow
8:04 AM 35.6 °F 25.5 °F 33.8 °F 93% 30.07 in 9.0 mi NNE 17.3 mph - 0.00 in Snow Light Snow
8:53 AM 35.1 °F 26.9 °F 33.1 °F 92% 30.11 in 10.0 mi NE 11.5 mph - 0.00 in   Overcast
9:03 AM 33.8 °F 25.3 °F 32.0 °F 93% 30.10 in 8.0 mi NE 11.5 mph - 0.00 in Snow Light Snow
9:26 AM 35.6 °F 27.5 °F 33.8 °F 93% 30.10 in 2.0 mi NE 11.5 mph - 0.00 in Snow Light Snow
9:34 AM 35.6 °F 27.1 °F 32.0 °F 87% 30.10 in 1.8 mi NNE 12.7 mph - 0.00 in Snow Light Snow
9:41 AM 35.6 °F 27.5 °F 32.0 °F 87% 30.10 in 2.0 mi NNE 11.5 mph - 0.00 in Snow Light Snow
9:49 AM 35.6 °F 26.2 °F 33.8 °F 93% 30.11 in 3.0 mi NNE 15.0 mph - 0.00 in Snow Light Snow
9:53 AM 35.1 °F 25.9 °F 32.0 °F 89% 30.12 in 2.5 mi NNE 13.8 mph - 0.00 in Snow Light Snow
10:14 AM 35.6 °F 29.9 °F 33.8 °F 93% 30.11 in 7.0 mi NNE 6.9 mph - 0.00 in Snow Light Snow
10:39 AM 37.4 °F 31.4 °F 33.8 °F 87% 30.12 in 7.0 mi NNE 8.1 mph - 0.00 in Snow Light Snow
10:53 AM 36.0 °F 29.6 °F 33.1 °F 89% 30.14 in 5.0 mi NNE 8.1 mph - 0.00 in Snow Light Snow
11:53 AM 39.0 °F 34.0 °F 35.1 °F 86% 30.14 in 10.0 mi WNW 6.9 mph - 0.01 in   Overcast
12:32 PM 39.2 °F 34.2 °F 35.6 °F 87% 30.13 in 10.0 mi West 6.9 mph - N/A   Overcast
12:53 PM 42.1 °F 36.6 °F 35.1 °F 76% 30.12 in 10.0 mi WNW 9.2 mph - N/A   Overcast
1:36 PM 44.6 °F 38.4 °F 30.2 °F 57% 30.10 in 10.0 mi NW 12.7 mph - N/A   Overcast
1:53 PM 45.0 °F 39.7 °F 30.0 °F 56% 30.10 in 10.0 mi NNW 10.4 mph 18.4 mph N/A   Overcast
2:53 PM 46.0 °F 40.6 °F 27.0 °F 47% 30.11 in 10.0 mi NNW 11.5 mph - N/A   Overcast
3:53 PM 48.0 °F - 27.0 °F 44% 30.10 in 10.0 mi NNW 16.1 mph - N/A   Partly Cloudy
4:53 PM 48.0 °F - 26.1 °F 42% 30.10 in 10.0 mi North 16.1 mph - N/A   Partly Cloudy
5:53 PM 45.0 °F 40.6 °F 26.1 °F 48% 30.12 in 10.0 mi NNW 8.1 mph - N/A   Clear
6:53 PM 41.0 °F 39.0 °F 26.1 °F 55% 30.17 in 10.0 mi NW 3.5 mph - N/A   Clear
7:53 PM 32.0 °F - 24.1 °F 73% 30.21 in 10.0 mi Calm Calm - N/A   Clear
8:53 PM 28.9 °F 22.8 °F 24.1 °F 82% 30.24 in 10.0 mi WSW 5.8 mph - N/A   Clear
9:53 PM 27.0 °F 19.5 °F 24.1 °F 89% 30.25 in 10.0 mi WSW 6.9 mph - N/A   Clear
10:53 PM 25.0 °F 19.3 °F 21.9 °F 88% 30.25 in 10.0 mi West 4.6 mph - N/A   Clear
11:53 PM 28.0 °F - 24.1 °F 85% 30.24 in 10.0 mi Calm Calm - N/A   Clear